,,,PA_Meas_PMT16A,,PR_Meas_QMR101_102,,RH_Meas_QMH101,,SR_Meas_QMS101,,TA_Meas_QMH101,,GenWind,,GenWind,
date,time,status,PA,status,PR,status,RH,status,SR,status,TA,status,DirAvg,status,SpdAvg,
2012-06-07, 00:00:04,VALID,998.659,VALID,0,VALID,79.4015,VALID,0,VALID,26.2779,VALID,181,VALID,1.14727,
2012-06-07, 00:01:04,VALID,998.643,VALID,0,VALID,79.4396,VALID,0,VALID,26.2974,VALID,181,VALID,1.14375,
2012-06-07, 00:02:04,VALID,998.641,VALID,0,VALID,78.9208,VALID,0,VALID,26.2954,VALID,181,VALID,1.03867,
2012-06-07, 00:03:04,VALID,998.62,VALID,0,VALID,78.7148,VALID,0,VALID,26.356,VALID,185,VALID,1.79023,
2012-06-07, 00:04:04,VALID,998.591,VALID,0,VALID,78.0129,VALID,0,VALID,26.4126,VALID,177,VALID,2.24609,
2012-06-07, 00:05:04,VALID,998.585,VALID,0,VALID,78.0052,VALID,0,VALID,26.5123,VALID,186,VALID,1.32656,
2012-06-07, 00:06:04,VALID,998.55,VALID,0,VALID,77.6848,VALID,0,VALID,26.5513,VALID,170,VALID,1.50781,
2012-06-07, 00:07:04,VALID,998.511,VALID,0,VALID,77.9213,VALID,0,VALID,26.5318,VALID,172,VALID,1.55977,
2012-06-07, 00:08:04,VALID,998.463,VALID,0,VALID,78.4783,VALID,0,VALID,26.4927,VALID,166,VALID,1.54297,
2012-06-07, 00:09:04,VALID,998.446,VALID,0,VALID,79.4472,VALID,0,VALID,26.4146,VALID,162,VALID,1.46055,
2012-06-07, 00:10:04,VALID,998.413,VALID,0,VALID,79.432,VALID,0,VALID,26.356,VALID,175,VALID,1.23047,
2012-06-07, 00:11:04,VALID,998.407,VALID,0,VALID,79.432,VALID,0,VALID,26.356,VALID,173,VALID,1.40508,
2012-06-07, 00:12:04,VALID,998.439,VALID,0,VALID,79.9279,VALID,0,VALID,26.3365,VALID,164,VALID,1.33242,
2012-06-07, 00:13:04,VALID,998.46,VALID,0,VALID,80.317,VALID,0,VALID,26.2584,VALID,161,VALID,1.21914,
2012-06-07, 00:14:04,VALID,998.444,VALID,0,VALID,80.584,VALID,0,VALID,26.1783,VALID,159,VALID,1.11797,
2012-06-07, 00:15:04,VALID,998.459,VALID,0,VALID,81.2402,VALID,0,VALID,26.1412,VALID,153,VALID,0.817969,
2012-06-07, 00:16:04,VALID,998.439,VALID,0,VALID,81.4843,VALID,0,VALID,26.0826,VALID,153,VALID,0.822656,
2012-06-07, 00:17:04,VALID,998.408,VALID,0,VALID,81.698,VALID,0,VALID,26.0631,VALID,153,VALID,0.672266,
2012-06-07, 00:18:04,VALID,998.41,VALID,0,VALID,82.0795,VALID,0,VALID,26.0221,VALID,149,VALID,0.899609,
2012-06-07, 00:19:04,VALID,998.365,VALID,0,VALID,82.0413,VALID,0,VALID,26.0045,VALID,144,VALID,0.604688,
2012-06-07, 00:20:04,VALID,998.336,VALID,0,VALID,81.6751,VALID,0,VALID,25.985,VALID,144,VALID,0.416797,
2012-06-07, 00:21:04,VALID,998.383,VALID,0,VALID,82.1786,VALID,0,VALID,25.9635,VALID,149,VALID,0.837109,
2012-06-07, 00:22:04,VALID,998.382,VALID,0,VALID,82.377,VALID,0,VALID,25.9635,VALID,153,VALID,1.15,
2012-06-07, 00:23:04,VALID,998.328,VALID,0,VALID,82.1939,VALID,0,VALID,25.985,VALID,155,VALID,1.02578,
2012-06-07, 00:24:04,VALID,998.34,VALID,0,VALID,81.4767,VALID,0,VALID,25.983,VALID,160,VALID,1.19219,
2012-06-07, 00:25:04,VALID,998.347,VALID,0,VALID,81.6827,VALID,0,VALID,26.0631,VALID,168,VALID,1.38398,
2012-06-07, 00:26:04,VALID,998.307,VALID,0,VALID,81.3012,VALID,0,VALID,26.0807,VALID,169,VALID,1.52148,
2012-06-07, 00:27:04,VALID,998.306,VALID,0,VALID,80.7366,VALID,0,VALID,26.1607,VALID,163,VALID,1.71641,
2012-06-07, 00:28:04,VALID,998.306,VALID,0,VALID,80.2483,VALID,0,VALID,26.2369,VALID,157,VALID,2.39766,
2012-06-07, 00:29:04,VALID,998.248,VALID,0,VALID,80.4009,VALID,0,VALID,26.2779,VALID,145,VALID,2.13828,
2012-06-07, 00:30:04,VALID,998.217,VALID,0,VALID,80.5917,VALID,0,VALID,26.2779,VALID,124,VALID,1.1957,
2012-06-07, 00:31:04,VALID,998.145,VALID,0,VALID,80.6527,VALID,0,VALID,26.2173,VALID,123,VALID,1.33086,
2012-06-07, 00:32:04,VALID,998.124,VALID,0,VALID,75.7087,VALID,0,VALID,26.2954,VALID,150,VALID,2.81289,
2012-06-07, 00:33:04,VALID,998.161,VALID,0,VALID,77.2346,VALID,0,VALID,26.5904,VALID,191,VALID,2.85742,
2012-06-07, 00:34:04,VALID,998.114,VALID,0,VALID,77.8145,VALID,0.104696,VALID,26.6059,VALID,157,VALID,2.45156,
2012-06-07, 00:35:04,VALID,998.054,VALID,0,VALID,77.0515,VALID,0.104696,VALID,26.5863,VALID,162,VALID,2.43164,
2012-06-07, 00:36:04,VALID,998.079,VALID,0,VALID,75.9758,VALID,0,VALID,26.6274,VALID,166,VALID,1.71992,
2012-06-07, 00:37:04,VALID,998.079,VALID,0,VALID,76.3878,VALID,0,VALID,26.6059,VALID,141,VALID,1.71953,
2012-06-07, 00:38:04,VALID,998.069,VALID,0,VALID,76.403,VALID,0,VALID,26.5473,VALID,157,VALID,1.40313,
2012-06-07, 00:39:04,VALID,998.089,VALID,0,VALID,76.2352,VALID,0.104696,VALID,26.5102,VALID,155,VALID,1.08477,
2012-06-07, 00:40:04,VALID,998.075,VALID,0,VALID,75.9758,VALID,0,VALID,26.4497,VALID,174,VALID,1.0543,
2012-06-07, 00:41:04,VALID,998.076,VALID,0,VALID,76.2352,VALID,0.104696,VALID,26.4301,VALID,169,VALID,1.13633,
2012-06-07, 00:42:04,VALID,998.095,VALID,0,VALID,76.2733,VALID,0,VALID,26.4517,VALID,161,VALID,0.882813,
2012-06-07, 00:43:04,VALID,998.074,VALID,0,VALID,76.0215,VALID,0.104696,VALID,26.4321,VALID,161,VALID,1.30391,
2012-06-07, 00:44:04,VALID,998.059,VALID,0,VALID,74.8923,VALID,0,VALID,26.4887,VALID,155,VALID,2.2,
2012-06-07, 00:45:04,VALID,998.034,VALID,0,VALID,75.0449,VALID,0,VALID,26.6059,VALID,129,VALID,1.88359,
2012-06-07, 00:46:04,VALID,998.034,VALID,0,VALID,74.5414,VALID,0,VALID,26.6059,VALID,136,VALID,2.47852,
2012-06-07, 00:47:05,VALID,998.012,VALID,0,VALID,74.6558,VALID,0.104696,VALID,26.6274,VALID,146,VALID,1.60078,
2012-06-07, 00:48:04,VALID,998.008,VALID,0,VALID,74.9,VALID,0,VALID,26.5884,VALID,141,VALID,1.35781,
2012-06-07, 00:49:05,VALID,997.97,VALID,0,VALID,74.1828,VALID,0,VALID,26.5863,VALID,151,VALID,1.58164,
2012-06-07, 00:50:05,VALID,997.999,VALID,0,VALID,73.4656,VALID,0,VALID,26.6059,VALID,153,VALID,1.88789,
2012-06-07, 00:51:05,VALID,997.961,VALID,0,VALID,73.4198,VALID,0,VALID,26.7641,VALID,126,VALID,2.12969,
2012-06-07, 00:52:05,VALID,997.925,VALID,0,VALID,72.0312,VALID,0.104696,VALID,26.7621,VALID,127,VALID,2.11172,
2012-06-07, 00:53:05,VALID,997.97,VALID,0,VALID,70.841,VALID,0,VALID,26.9204,VALID,158,VALID,2.16406,
2012-06-07, 00:54:05,VALID,997.953,VALID,0,VALID,69.6966,VALID,0.104696,VALID,27.0745,VALID,160,VALID,3.21328,
2012-06-07, 00:55:05,VALID,997.943,VALID,0,VALID,69.0404,VALID,0.104696,VALID,27.1917,VALID,146,VALID,3.05352,
2012-06-07, 00:56:05,VALID,997.92,VALID,0,VALID,70.1849,VALID,0.104696,VALID,27.1722,VALID,146,VALID,2.30078,
2012-06-07, 00:57:05,VALID,997.93,VALID,0,VALID,68.9565,VALID,0,VALID,27.1917,VALID,157,VALID,2.63438,
2012-06-07, 00:58:05,VALID,997.899,VALID,0,VALID,69.338,VALID,0,VALID,27.2719,VALID,154,VALID,2.68984,
2012-06-07, 00:59:05,VALID,997.917,VALID,0,VALID,69.0862,VALID,0,VALID,27.2719,VALID,151,VALID,2.66289,
2012-06-07, 01:00:05,VALID,997.815,VALID,0,VALID,67.6442,VALID,0,VALID,27.3891,VALID,171,VALID,3.06719,
2012-06-07, 01:01:05,VALID,997.793,VALID,0,VALID,66.8202,VALID,0,VALID,27.5258,VALID,156,VALID,4.14766,
2012-06-07, 01:02:05,VALID,997.808,VALID,0,VALID,66.8126,VALID,0,VALID,27.5824,VALID,163,VALID,4.0875,
2012-06-07, 01:03:05,VALID,997.753,VALID,0,VALID,66.4693,VALID,0.104696,VALID,27.5042,VALID,164,VALID,3.77187,
2012-06-07, 01:04:05,VALID,997.738,VALID,0,VALID,66.3395,VALID,0,VALID,27.604,VALID,152,VALID,4.79102,
2012-06-07, 01:05:05,VALID,997.745,VALID,0,VALID,66.2633,VALID,0,VALID,27.5845,VALID,160,VALID,3.45742,
2012-06-07, 01:06:05,VALID,997.701,VALID,0,VALID,65.8589,VALID,0,VALID,27.604,VALID,172,VALID,5.05664,
2012-06-07, 01:07:05,VALID,997.655,VALID,0,VALID,65.7292,VALID,0,VALID,27.6605,VALID,165,VALID,4.95664,
2012-06-07, 01:08:05,VALID,997.645,VALID,0,VALID,65.5461,VALID,0,VALID,27.7603,VALID,156,VALID,4.3082,
2012-06-07, 01:09:05,VALID,997.631,VALID,0,VALID,65.4393,VALID,0,VALID,27.7777,VALID,181,VALID,3.99102,
2012-06-07, 01:10:05,VALID,997.613,VALID,0,VALID,65.5155,VALID,0,VALID,27.7972,VALID,157,VALID,3.62148,
2012-06-07, 01:11:05,VALID,997.598,VALID,0,VALID,64.7221,VALID,0,VALID,27.8168,VALID,173,VALID,5.4293,
2012-06-07, 01:12:05,VALID,997.57,VALID,0,VALID,65.8436,VALID,0,VALID,27.8384,VALID,178,VALID,3.27852,
2012-06-07, 01:13:05,VALID,997.609,VALID,0,VALID,65.9733,VALID,0,VALID,27.7191,VALID,160,VALID,3.54805,
2012-06-07, 01:14:05,VALID,997.55,VALID,0,VALID,65.1493,VALID,0.104696,VALID,27.7798,VALID,193,VALID,4.01211,
2012-06-07, 01:15:05,VALID,997.577,VALID,0,VALID,66.1335,VALID,0,VALID,27.7798,VALID,162,VALID,4.3875,
2012-06-07, 01:16:05,VALID,997.576,VALID,0,VALID,66.515,VALID,0,VALID,27.641,VALID,166,VALID,3.32266,
2012-06-07, 01:17:05,VALID,997.555,VALID,0,VALID,66.0115,VALID,0,VALID,27.6431,VALID,165,VALID,2.48711,
2012-06-07, 01:18:05,VALID,997.54,VALID,0,VALID,66.6066,VALID,0,VALID,27.6431,VALID,166,VALID,5.1207,
2012-06-07, 01:19:05,VALID,997.507,VALID,0,VALID,65.7673,VALID,0,VALID,27.6626,VALID,185,VALID,3.69219,
2012-06-07, 01:20:05,VALID,997.537,VALID,0,VALID,65.8131,VALID,0,VALID,27.6821,VALID,171,VALID,4.20586,
2012-06-07, 01:21:05,VALID,997.482,VALID,0,VALID,65.836,VALID,0,VALID,27.6996,VALID,179,VALID,5.78672,
2012-06-07, 01:22:05,VALID,997.471,VALID,0,VALID,65.6758,VALID,0,VALID,27.7603,VALID,170,VALID,4.725,
2012-06-07, 01:23:05,VALID,997.389,VALID,0,VALID,65.3782,VALID,0,VALID,27.7993,VALID,202,VALID,4.41641,
2012-06-07, 01:24:05,VALID,997.455,VALID,0,VALID,65.6681,VALID,0,VALID,27.8189,VALID,168,VALID,3.40352,
2012-06-07, 01:25:05,VALID,997.431,VALID,0,VALID,65.8512,VALID,0,VALID,27.7603,VALID,175,VALID,4.10273,
2012-06-07, 01:26:05,VALID,997.414,VALID,0,VALID,65.9047,VALID,0,VALID,27.7017,VALID,175,VALID,4.11328,
2012-06-07, 01:27:05,VALID,997.397,VALID,0,VALID,65.5384,VALID,0,VALID,27.6996,VALID,177,VALID,3.91836,
2012-06-07, 01:28:05,VALID,997.398,VALID,0,VALID,65.6834,VALID,0,VALID,27.7191,VALID,175,VALID,4.23281,
2012-06-07, 01:29:05,VALID,997.383,VALID,0,VALID,65.5537,VALID,0,VALID,27.7386,VALID,159,VALID,5.33633,
2012-06-07, 01:30:05,VALID,997.389,VALID,0,VALID,66.1259,VALID,0,VALID,27.6996,VALID,185,VALID,2.96289,
2012-06-07, 01:31:05,VALID,997.357,VALID,0,VALID,65.3858,VALID,0,VALID,27.7212,VALID,182,VALID,3.86289,
2012-06-07, 01:32:05,VALID,997.394,VALID,0,VALID,65.3401,VALID,0,VALID,27.7777,VALID,168,VALID,5.12305,
2012-06-07, 01:33:05,VALID,997.361,VALID,0,VALID,65.4698,VALID,0,VALID,27.7972,VALID,177,VALID,3.84922,
2012-06-07, 01:34:05,VALID,997.335,VALID,0,VALID,65.2256,VALID,0,VALID,27.7798,VALID,167,VALID,4.48984,
2012-06-07, 01:35:05,VALID,997.376,VALID,0,VALID,65.691,VALID,0,VALID,27.7603,VALID,175,VALID,4.54063,
2012-06-07, 01:36:05,VALID,997.345,VALID,0,VALID,65.6452,VALID,0,VALID,27.7407,VALID,173,VALID,5.07852,
2012-06-07, 01:37:05,VALID,997.303,VALID,0,VALID,65.4087,VALID,0,VALID,27.7798,VALID,182,VALID,5.77031,
2012-06-07, 01:38:05,VALID,997.276,VALID,0,VALID,65.2027,VALID,0,VALID,27.7777,VALID,172,VALID,4.74336,
2012-06-07, 01:39:05,VALID,997.285,VALID,0,VALID,65.5537,VALID,0,VALID,27.7993,VALID,173,VALID,4.49766,
2012-06-07, 01:40:05,VALID,997.31,VALID,0,VALID,65.7139,VALID,0,VALID,27.7407,VALID,172,VALID,4.7875,
2012-06-07, 01:41:05,VALID,997.287,VALID,0,VALID,66.2022,VALID,0,VALID,27.7017,VALID,178,VALID,4.00547,
2012-06-07, 01:42:05,VALID,997.267,VALID,0,VALID,66.4082,VALID,0,VALID,27.6626,VALID,172,VALID,4.09492,
2012-06-07, 01:43:05,VALID,997.258,VALID,0,VALID,65.8894,VALID,0,VALID,27.6996,VALID,174,VALID,4.79375,
2012-06-07, 01:44:05,VALID,997.287,VALID,0,VALID,66.5761,VALID,0,VALID,27.7212,VALID,149,VALID,3.65117,
2012-06-07, 01:45:05,VALID,997.271,VALID,0,VALID,65.9199,VALID,0,VALID,27.7017,VALID,160,VALID,4.75508,
2012-06-07, 01:46:05,VALID,997.263,VALID,0,VALID,66.0038,VALID,0,VALID,27.68,VALID,163,VALID,4.73438,
2012-06-07, 01:47:05,VALID,997.284,VALID,0,VALID,65.8589,VALID,0,VALID,27.7407,VALID,168,VALID,3.79766,
2012-06-07, 01:48:05,VALID,997.308,VALID,0,VALID,66.3014,VALID,0,VALID,27.7017,VALID,160,VALID,3.75547,
2012-06-07, 01:49:05,VALID,997.302,VALID,0,VALID,66.1107,VALID,0,VALID,27.6605,VALID,159,VALID,4.74648,
2012-06-07, 01:50:05,VALID,997.281,VALID,0,VALID,66.2556,VALID,0,VALID,27.6626,VALID,161,VALID,4.19492,
2012-06-07, 01:51:05,VALID,997.326,VALID,0,VALID,66.3701,VALID,0,VALID,27.6235,VALID,166,VALID,3.43242,
2012-06-07, 01:52:05,VALID,997.356,VALID,0,VALID,65.981,VALID,0,VALID,27.6431,VALID,165,VALID,5.13906,
2012-06-07, 01:53:05,VALID,997.306,VALID,0,VALID,66.2022,VALID,0.104696,VALID,27.6019,VALID,163,VALID,3.73867,
2012-06-07, 01:54:05,VALID,997.303,VALID,0,VALID,65.836,VALID,0,VALID,27.641,VALID,159,VALID,5.10508,
2012-06-07, 01:55:05,VALID,997.346,VALID,0,VALID,66.4387,VALID,0,VALID,27.6431,VALID,160,VALID,3.64023,
2012-06-07, 01:56:05,VALID,997.282,VALID,0,VALID,66.0801,VALID,0,VALID,27.604,VALID,142,VALID,4.70078,
2012-06-07, 01:57:05,VALID,997.326,VALID,0,VALID,66.3014,VALID,0,VALID,27.6214,VALID,155,VALID,4.4625,
2012-06-07, 01:58:05,VALID,997.331,VALID,0,VALID,66.0038,VALID,0.104696,VALID,27.6235,VALID,160,VALID,3.78125,
2012-06-07, 01:59:05,VALID,997.323,VALID,0,VALID,66.4998,VALID,0,VALID,27.6235,VALID,150,VALID,2.7793,
2012-06-07, 02:00:05,VALID,997.276,VALID,0,VALID,66.2709,VALID,0,VALID,27.6019,VALID,152,VALID,4.86172,
2012-06-07, 02:01:05,VALID,997.255,VALID,0,VALID,65.3401,VALID,0,VALID,27.6605,VALID,161,VALID,4.67305,
2012-06-07, 02:02:05,VALID,997.253,VALID,0,VALID,65.6605,VALID,0,VALID,27.7017,VALID,171,VALID,5.08242,
2012-06-07, 02:03:05,VALID,997.266,VALID,0,VALID,66.103,VALID,0,VALID,27.6626,VALID,172,VALID,4.00352,
2012-06-07, 02:04:05,VALID,997.23,VALID,0,VALID,66.1488,VALID,0,VALID,27.6019,VALID,164,VALID,3.45781,
2012-06-07, 02:05:05,VALID,997.215,VALID,0,VALID,65.691,VALID,0.104696,VALID,27.6019,VALID,174,VALID,5.14453,
2012-06-07, 02:06:05,VALID,997.187,VALID,0,VALID,65.2104,VALID,0,VALID,27.7798,VALID,174,VALID,4.68047,
2012-06-07, 02:07:05,VALID,997.244,VALID,0,VALID,65.8589,VALID,0.104696,VALID,27.7582,VALID,166,VALID,4.36719,
2012-06-07, 02:08:05,VALID,997.202,VALID,0,VALID,66.0344,VALID,0,VALID,27.6214,VALID,160,VALID,2.75195,
2012-06-07, 02:09:05,VALID,997.247,VALID,0,VALID,66.309,VALID,0,VALID,27.5649,VALID,181,VALID,3.18633,
2012-06-07, 02:10:05,VALID,997.208,VALID,0,VALID,66.0496,VALID,0,VALID,27.68,VALID,164,VALID,5.01328,
2012-06-07, 02:11:05,VALID,997.22,VALID,0,VALID,66.2861,VALID,0,VALID,27.5824,VALID,160,VALID,3.12539,
2012-06-07, 02:12:05,VALID,997.164,VALID,0,VALID,66.042,VALID,0,VALID,27.7017,VALID,168,VALID,4.175,
2012-06-07, 02:13:05,VALID,997.193,VALID,0,VALID,67.2169,VALID,0,VALID,27.5628,VALID,142,VALID,2.46875,
2012-06-07, 02:14:05,VALID,997.194,VALID,0,VALID,67.8731,VALID,0,VALID,27.348,VALID,146,VALID,2.88359,
2012-06-07, 02:15:05,VALID,997.179,VALID,0,VALID,68.0104,VALID,0,VALID,27.2915,VALID,165,VALID,3.08359,
2012-06-07, 02:16:05,VALID,997.221,VALID,0,VALID,67.011,VALID,0,VALID,27.4672,VALID,161,VALID,5.04453,
2012-06-07, 02:17:05,VALID,997.2,VALID,0,VALID,66.6218,VALID,0.104696,VALID,27.4847,VALID,170,VALID,4.03164,
2012-06-07, 02:18:05,VALID,997.216,VALID,0,VALID,66.4082,VALID,0,VALID,27.5238,VALID,146,VALID,3.58789,
2012-06-07, 02:19:05,VALID,997.21,VALID,0,VALID,67.3085,VALID,0,VALID,27.4652,VALID,146,VALID,2.18164,
2012-06-07, 02:20:05,VALID,997.218,VALID,0,VALID,68.9641,VALID,0,VALID,27.3305,VALID,137,VALID,1.40508,
2012-06-07, 02:21:05,VALID,997.216,VALID,0,VALID,68.4911,VALID,0,VALID,27.1743,VALID,142,VALID,1.95273,
2012-06-07, 02:22:05,VALID,997.244,VALID,0,VALID,68.3843,VALID,0,VALID,27.1331,VALID,131,VALID,1.53789,
2012-06-07, 02:23:05,VALID,997.249,VALID,0,VALID,69.3761,VALID,0,VALID,27.1547,VALID,139,VALID,1.14375,
2012-06-07, 02:24:05,VALID,997.235,VALID,0,VALID,70.162,VALID,0,VALID,27.0571,VALID,135,VALID,0.952344,
2012-06-07, 02:25:05,VALID,997.227,VALID,0,VALID,70.5053,VALID,0,VALID,26.9183,VALID,134,VALID,0.767187,
2012-06-07, 02:26:05,VALID,997.233,VALID,0,VALID,70.6045,VALID,0,VALID,26.8422,VALID,134,VALID,1.64492,
2012-06-07, 02:27:05,VALID,997.223,VALID,0,VALID,71.5124,VALID,0,VALID,26.7621,VALID,131,VALID,1.6168,
2012-06-07, 02:28:05,VALID,997.232,VALID,0,VALID,71.7108,VALID,0,VALID,26.7055,VALID,114,VALID,1.20703,
2012-06-07, 02:29:05,VALID,997.267,VALID,0,VALID,72.4661,VALID,0,VALID,26.6254,VALID,116,VALID,1.22617,
2012-06-07, 02:30:05,VALID,997.25,VALID,0,VALID,72.8934,VALID,0,VALID,26.5688,VALID,116,VALID,0.533203,
2012-06-07, 02:31:05,VALID,997.236,VALID,0,VALID,73.4351,VALID,0,VALID,26.4692,VALID,116,VALID,0.597266,
2012-06-07, 02:32:05,VALID,997.24,VALID,0,VALID,73.8395,VALID,0,VALID,26.4126,VALID,119,VALID,0.642969,
2012-06-07, 02:33:05,VALID,997.253,VALID,0,VALID,74.1294,VALID,0,VALID,26.3325,VALID,119,VALID,0.745703,
2012-06-07, 02:34:05,VALID,997.212,VALID,0,VALID,74.4727,VALID,0,VALID,26.2974,VALID,118,VALID,0.980469,
2012-06-07, 02:35:05,VALID,997.235,VALID,0,VALID,75.1441,VALID,0,VALID,26.2389,VALID,106,VALID,0.963672,
2012-06-07, 02:36:05,VALID,997.245,VALID,0,VALID,74.7474,VALID,0,VALID,26.1978,VALID,124,VALID,1.21133,
2012-06-07, 02:37:05,VALID,997.258,VALID,0,VALID,75.7698,VALID,0,VALID,26.1803,VALID,114,VALID,0.910937,
2012-06-07, 02:38:05,VALID,997.26,VALID,0,VALID,76.4259,VALID,0,VALID,26.1217,VALID,109,VALID,0.81875,
2012-06-07, 02:39:05,VALID,997.277,VALID,0,VALID,76.9447,VALID,0,VALID,26.0241,VALID,86,VALID,1.02695,
2012-06-07, 02:40:05,VALID,997.266,VALID,0,VALID,78.6232,VALID,0,VALID,25.9069,VALID,71,VALID,0.963281,
2012-06-07, 02:41:05,VALID,997.244,VALID,0,VALID,80.0652,VALID,0,VALID,25.7487,VALID,46,VALID,0.696875,
2012-06-07, 02:42:05,VALID,997.253,VALID,0,VALID,80.7366,VALID,0,VALID,25.614,VALID,46,VALID,0.585547,
2012-06-07, 02:43:05,VALID,997.224,VALID,0,VALID,82.11,VALID,0,VALID,25.4754,VALID,31,VALID,1.30352,
2012-06-07, 02:44:05,VALID,997.231,VALID,0,VALID,84.5286,VALID,0,VALID,25.2997,VALID,3,VALID,0.937109,
2012-06-07, 02:45:05,VALID,997.214,VALID,0,VALID,86.6572,VALID,0,VALID,25.165,VALID,350,VALID,0.704687,
2012-06-07, 02:46:05,VALID,997.228,VALID,0,VALID,86.9243,VALID,0,VALID,25.0265,VALID,11,VALID,0.971094,
2012-06-07, 02:47:05,VALID,997.19,VALID,0,VALID,87.1913,VALID,0,VALID,24.9893,VALID,357,VALID,1.0625,
2012-06-07, 02:48:05,VALID,997.182,VALID,0,VALID,87.5346,VALID,0,VALID,24.9503,VALID,336,VALID,1.03672,
2012-06-07, 02:49:05,VALID,997.216,VALID,0,VALID,87.8551,VALID,0,VALID,24.9093,VALID,328,VALID,0.596484,
2012-06-07, 02:50:05,VALID,997.233,VALID,0,VALID,88.1068,VALID,0,VALID,24.8489,VALID,318,VALID,0.585938,
2012-06-07, 02:51:05,VALID,997.206,VALID,0,VALID,87.8246,VALID,0,VALID,24.8508,VALID,317,VALID,0.440625,
2012-06-07, 02:52:05,VALID,997.17,VALID,0,VALID,87.3363,VALID,0,VALID,24.8508,VALID,318,VALID,0.851563,
2012-06-07, 02:53:05,VALID,997.178,VALID,0,VALID,87.176,VALID,0,VALID,24.8489,VALID,318,VALID,0.819141,
2012-06-07, 02:54:05,VALID,997.166,VALID,0,VALID,87.3744,VALID,0,VALID,24.8879,VALID,321,VALID,0.699219,
2012-06-07, 02:55:05,VALID,997.188,VALID,0,VALID,87.2371,VALID,0,VALID,24.927,VALID,329,VALID,0.333203,
2012-06-07, 02:56:05,VALID,997.189,VALID,0,VALID,87.466,VALID,0,VALID,24.9074,VALID,329,VALID,0.328906,
2012-06-07, 02:57:05,VALID,997.199,VALID,0,VALID,87.527,VALID,0,VALID,24.9093,VALID,329,VALID,0.285547,
2012-06-07, 02:58:05,VALID,997.181,VALID,0,VALID,87.0158,VALID,0,VALID,24.9093,VALID,322,VALID,0.795313,
2012-06-07, 02:59:05,VALID,997.173,VALID,0,VALID,86.5504,VALID,0,VALID,24.9484,VALID,313,VALID,0.599609,
2012-06-07, 03:00:05,VALID,997.203,VALID,0,VALID,85.6806,VALID,0,VALID,24.9465,VALID,313,VALID,0.556641,
2012-06-07, 03:01:05,VALID,997.205,VALID,0,VALID,85.9324,VALID,0,VALID,25.0246,VALID,313,VALID,0.511328,
2012-06-07, 03:02:05,VALID,997.184,VALID,0,VALID,85.94,VALID,0,VALID,25.0655,VALID,313,VALID,0.504297,
2012-06-07, 03:03:05,VALID,997.197,VALID,0,VALID,83.9869,VALID,0,VALID,25.046,VALID,308,VALID,0.950781,
2012-06-07, 03:04:05,VALID,997.203,VALID,0,VALID,83.2468,VALID,0,VALID,25.126,VALID,289,VALID,1.07148,
2012-06-07, 03:05:05,VALID,997.216,VALID,0,VALID,83.7427,VALID,0,VALID,25.1845,VALID,287,VALID,1.07148,
2012-06-07, 03:06:05,VALID,997.211,VALID,0,VALID,83.7198,VALID,0,VALID,25.204,VALID,289,VALID,0.886328,
2012-06-07, 03:07:05,VALID,997.222,VALID,0,VALID,81.0723,VALID,0,VALID,25.2431,VALID,275,VALID,0.855859,
2012-06-07, 03:08:05,VALID,997.228,VALID,0,VALID,78.6614,VALID,0,VALID,25.3583,VALID,251,VALID,1.15273,
2012-06-07, 03:09:05,VALID,997.222,VALID,0,VALID,78.8216,VALID,0,VALID,25.5535,VALID,250,VALID,0.504297,
2012-06-07, 03:10:05,VALID,997.244,VALID,0,VALID,75.6782,VALID,0,VALID,25.7878,VALID,231,VALID,1.85664,
2012-06-07, 03:11:05,VALID,997.234,VALID,0,VALID,74.137,VALID,0,VALID,26.0826,VALID,205,VALID,1.47461,
2012-06-07, 03:12:05,VALID,997.222,VALID,0,VALID,72.901,VALID,0,VALID,26.317,VALID,216,VALID,1.59883,
2012-06-07, 03:13:05,VALID,997.242,VALID,0,VALID,72.1381,VALID,0,VALID,26.4907,VALID,235,VALID,1.35664,
2012-06-07, 03:14:05,VALID,997.269,VALID,0,VALID,71.7337,VALID,0,VALID,26.5904,VALID,227,VALID,1.30664,
2012-06-07, 03:15:05,VALID,997.238,VALID,0,VALID,70.6884,VALID,0,VALID,26.7446,VALID,216,VALID,1.86836,
2012-06-07, 03:16:05,VALID,997.278,VALID,0,VALID,70.5816,VALID,0,VALID,26.8638,VALID,242,VALID,1.25977,
2012-06-07, 03:17:05,VALID,997.273,VALID,0,VALID,69.9789,VALID,0,VALID,26.8422,VALID,221,VALID,1.70117,
2012-06-07, 03:18:05,VALID,997.302,VALID,0,VALID,70.0857,VALID,0,VALID,26.9029,VALID,229,VALID,1.81406,
2012-06-07, 03:19:05,VALID,997.339,VALID,0,VALID,70.4138,VALID,0,VALID,26.8813,VALID,224,VALID,1.01094,
2012-06-07, 03:20:05,VALID,997.298,VALID,0,VALID,70.2993,VALID,0,VALID,26.8813,VALID,225,VALID,1.6293,
2012-06-07, 03:21:05,VALID,997.309,VALID,0,VALID,70.3222,VALID,0,VALID,26.8813,VALID,219,VALID,1.42852,
2012-06-07, 03:22:05,VALID,997.315,VALID,0,VALID,70.2383,VALID,0,VALID,26.9204,VALID,214,VALID,0.895703,
2012-06-07, 03:23:05,VALID,997.297,VALID,0,VALID,70.0781,VALID,0,VALID,26.9399,VALID,223,VALID,1.95469,
2012-06-07, 03:24:05,VALID,997.304,VALID,0,VALID,69.6432,VALID,0,VALID,27.0396,VALID,217,VALID,1.67109,
2012-06-07, 03:25:05,VALID,997.332,VALID,0,VALID,69.338,VALID,0,VALID,27.0961,VALID,217,VALID,1.73711,
2012-06-07, 03:26:05,VALID,997.303,VALID,0,VALID,69.0633,VALID,0,VALID,27.1959,VALID,181,VALID,2.32891,
2012-06-07, 03:27:05,VALID,997.344,VALID,0,VALID,68.9184,VALID,0,VALID,27.1938,VALID,210,VALID,1.91016,
2012-06-07, 03:28:05,VALID,997.365,VALID,0,VALID,68.8039,VALID,0,VALID,27.2133,VALID,206,VALID,1.41445,
2012-06-07, 03:29:05,VALID,997.341,VALID,0,VALID,68.7887,VALID,0,VALID,27.2329,VALID,206,VALID,0.988672,
2012-06-07, 03:30:05,VALID,997.358,VALID,0,VALID,69.3609,VALID,0,VALID,27.2133,VALID,228,VALID,0.842188,
2012-06-07, 03:31:05,VALID,997.36,VALID,0,VALID,69.1701,VALID,0,VALID,27.1743,VALID,213,VALID,1.28906,
2012-06-07, 03:32:05,VALID,997.357,VALID,0,VALID,69.2007,VALID,0,VALID,27.1547,VALID,190,VALID,2.14453,
2012-06-07, 03:33:04,VALID,997.349,VALID,0,VALID,68.8039,VALID,0,VALID,27.2133,VALID,201,VALID,2.91875,
2012-06-07, 03:34:04,VALID,997.344,VALID,0,VALID,68.5293,VALID,0,VALID,27.311,VALID,186,VALID,2.68438,
2012-06-07, 03:35:04,VALID,997.387,VALID,0,VALID,68.514,VALID,0,VALID,27.35,VALID,209,VALID,2.2457,
2012-06-07, 03:36:04,VALID,997.383,VALID,0,VALID,68.3767,VALID,0,VALID,27.3696,VALID,214,VALID,2.27305,
2012-06-07, 03:37:04,VALID,997.374,VALID,0,VALID,69.0252,VALID,0,VALID,27.35,VALID,198,VALID,2.08047,
2012-06-07, 03:38:04,VALID,997.378,VALID,0,VALID,68.3995,VALID,0,VALID,27.3305,VALID,194,VALID,2.37227,
2012-06-07, 03:39:04,VALID,997.357,VALID,0,VALID,68.5216,VALID,0,VALID,27.3696,VALID,207,VALID,2.74219,
2012-06-07, 03:40:04,VALID,997.365,VALID,0,VALID,67.9875,VALID,0,VALID,27.4498,VALID,181,VALID,2.36133,
2012-06-07, 03:41:04,VALID,997.357,VALID,0,VALID,68.0791,VALID,0,VALID,27.4282,VALID,208,VALID,2.43594,
2012-06-07, 03:42:04,VALID,997.374,VALID,0,VALID,68.4072,VALID,0,VALID,27.4282,VALID,204,VALID,1.9207,
2012-06-07, 03:43:04,VALID,997.396,VALID,0,VALID,68.4301,VALID,0,VALID,27.4282,VALID,213,VALID,2.70508,
2012-06-07, 03:44:04,VALID,997.373,VALID,0,VALID,68.4224,VALID,0,VALID,27.4477,VALID,182,VALID,3.28711,
2012-06-07, 03:45:04,VALID,997.403,VALID,0,VALID,68.3919,VALID,0,VALID,27.4498,VALID,207,VALID,2.54844,